Weather History for Williston, ND

Change the Weather History Date:

Saturday, April 19, 2014

  Actual Average Record
Temperature  
Mean Temperature 46 °F 45 °F  
Max Temperature 60 °F 59 °F 87 °F (1910)
Min Temperature 32 °F 31 °F 6 °F (1928)
Degree Days  
Heating Degree Days 19 20  
Month to date heating degree days 522 454  
Since 1 July heating degree days 8674 8329  
Cooling Degree Days 0 0  
Month to date cooling degree days 0 0  
Year to date cooling degree days 0 0  
Moisture  
Dew Point 34 °F    
Average Humidity 64    
Maximum Humidity 92    
Minimum Humidity 36    
Precipitation  
Precipitation T in 0.03 in 0.95 in (1985)
Month to date precipitation 0.28 0.56  
Year to date precipitation 1.04 2.25  
Sea Level Pressure  
Sea Level Pressure 29.86 in    
Wind  
Wind Speed 10 mph (West)    
Max Wind Speed 28 mph    
Max Gust Speed 36 mph    
Visibility 10 miles    
Events Rain    
T = Trace of Precipitation, MM = Missing Value Source: NWS Daily Summary

Daily Weather History Graph

Daily Weather History Graph

Search for Another Location

Airport:

Trip Planner

Search our weather history database for the weather conditions in past years. The results will help you decide how hot, cold, wet, or windy it might be!

Date:

Astronomy

Apr. 19, 2014 Rise Set
Actual Time 6:57 AM CDT 8:51 PM CDT
Civil Twilight 6:23 AM CDT 9:24 PM CDT
Nautical Twilight 5:43 AM CDT 10:05 PM CDT
Astronomical Twilight 4:57 AM CDT 10:51 PM CDT
Moon 12:48 AM CDT (4/19) 10:07 AM CDT (4/19)
Length of Visible Light 15h 00m
Length of Day
13h 53m
Waning Gibbous, 78% of the Moon is Illuminated
Apr 19
Waning Gibbous
Apr 22
Last Quarter
Apr 29
New
May 6
First Quarter
May 14
Full

Hourly Weather History & Observations

Time (CDT) Temp. Windchill Dew Point Humidity Pressure Visibility Wind Dir Wind Speed Gust Speed Precip Events Conditions
12:07 AM 42.1 °F 32.3 °F 39.0 °F 89% 29.73 in 10.0 mi West 24.2 mph 32.2 mph 0.00 in Rain Light Rain
12:13 AM 42.1 °F 33.3 °F 39.0 °F 89% 29.72 in 8.0 mi WNW 19.6 mph 31.1 mph 0.00 in Rain Light Rain
12:52 AM 46.0 °F 41.9 °F 37.0 °F 71% 29.73 in 10.0 mi West 8.1 mph - 0.04 in Rain Light Rain
1:52 AM 41.0 °F 34.7 °F 37.0 °F 86% 29.76 in 10.0 mi SW 10.4 mph - 0.00 in   Clear
2:52 AM 39.0 °F 32.3 °F 36.0 °F 89% 29.75 in 10.0 mi SW 10.4 mph - N/A   Clear
3:52 AM 35.6 °F 30.7 °F 33.8 °F 93% 29.72 in 10.0 mi SW 5.8 mph - N/A   Clear
4:52 AM 37.0 °F 31.0 °F 32.0 °F 82% 29.75 in 10.0 mi SSW 8.1 mph - N/A   Clear
5:52 AM 33.1 °F 26.1 °F 28.9 °F 85% 29.78 in 10.0 mi SW 8.1 mph - N/A   Scattered Clouds
6:35 AM 36.0 °F 29.6 °F 30.9 °F 82% 29.75 in 10.0 mi SW 8.1 mph - N/A   Mostly Cloudy
6:52 AM 37.4 °F 28.9 °F 32.0 °F 81% 29.75 in 10.0 mi West 13.8 mph 19.6 mph N/A   Mostly Cloudy
7:45 AM 39.0 °F 28.8 °F 34.0 °F 82% 29.79 in 10.0 mi West 21.9 mph 28.8 mph N/A   Mostly Cloudy
7:52 AM 39.0 °F 28.0 °F 34.0 °F 82% 29.82 in 10.0 mi West 25.3 mph 35.7 mph N/A   Mostly Cloudy
8:01 AM 39.9 °F 28.8 °F 34.0 °F 79% 29.78 in 10.0 mi West 27.6 mph 34.5 mph N/A   Scattered Clouds
8:52 AM 42.1 °F 33.9 °F 36.0 °F 79% 29.86 in 10.0 mi West 17.3 mph 26.5 mph N/A   Clear
9:08 AM 41.0 °F 32.5 °F 35.1 °F 79% 29.84 in 10.0 mi West 17.3 mph 27.6 mph N/A   Mostly Cloudy
9:52 AM 42.1 °F 35.2 °F 36.0 °F 79% 29.92 in 10.0 mi West 12.7 mph 21.9 mph N/A   Overcast
10:52 AM 44.1 °F 37.4 °F 36.0 °F 73% 29.93 in 10.0 mi WNW 13.8 mph - N/A   Overcast
11:52 AM 48.0 °F - 36.0 °F 63% 29.94 in 10.0 mi WNW 19.6 mph - N/A   Mostly Cloudy
12:41 PM 52.0 °F - 36.0 °F 54% 29.91 in 10.0 mi NW 17.3 mph 23.0 mph N/A   Mostly Cloudy
12:52 PM 51.1 °F - 35.1 °F 54% 29.94 in 10.0 mi WNW 17.3 mph 25.3 mph N/A   Mostly Cloudy
1:52 PM 52.0 °F - 34.0 °F 50% 29.95 in 10.0 mi WNW 15.0 mph - N/A   Mostly Cloudy
2:52 PM 55.9 °F - 33.1 °F 42% 29.96 in 10.0 mi West 17.3 mph 27.6 mph N/A   Overcast
3:52 PM 57.2 °F - 33.8 °F 41% 29.92 in 10.0 mi West 16.1 mph 21.9 mph N/A   Scattered Clouds
4:52 PM 59.0 °F - 33.1 °F 38% 29.95 in 10.0 mi West 11.5 mph - N/A   Partly Cloudy
5:52 PM 60.1 °F - 33.1 °F 36% 29.95 in 10.0 mi West 10.4 mph - N/A   Partly Cloudy
6:52 PM 57.9 °F - 33.1 °F 39% 29.95 in 10.0 mi WSW 10.4 mph - N/A   Scattered Clouds
7:52 PM 57.0 °F - 33.1 °F 40% 29.94 in 10.0 mi WSW 5.8 mph - N/A   Clear
8:52 PM 42.1 °F - 32.0 °F 67% 29.95 in 10.0 mi Calm Calm - N/A   Clear
9:52 PM 37.9 °F - 30.9 °F 76% 29.96 in 10.0 mi Calm Calm - N/A   Clear
10:52 PM 37.0 °F - 30.0 °F 76% 29.97 in 10.0 mi Calm Calm - N/A   Clear
11:52 PM 39.9 °F - 32.0 °F 73% 29.95 in 10.0 mi Calm Calm - N/A   Clear